Home   Weather   Newman   Past weeks

Flag for Australia Past Weather in Newman, Western Australia, Australia — Yesterday and Last 2 Weeks

Now
87 °F

Overcast.


Feels Like: 90 °F
Forecast: 75 / 98 °F
Wind: 6 mph from North

Location: Newman Aerodrome

Current Time: Jan 21, 2017 at 9:52:24 pm

Latest Report: Jan 21, 2017 at 9:00 pm


Visibility: N/A

Pressure: 29.64 "Hg (27.87 "Hg at 546m altitude)

Humidity: 54%

Dew Point: 68 °F

Location of NewmanLocation

Past Weather in Newman — Graph

°F

Newman Temperature Yesterday

Maximum temperature yesterday: 98 °F (at 2:00 pm)
Minimum temperature yesterday: 76 °F (at 6:00 pm)
Average temperature yesterday: 82 °F

High & Low Weather Summary for the Past Weeks

 TemperatureHumidityPressure
High99 °F (Jan 10, 3:00 pm)96% (Jan 15, 8:00 am)29.74 "Hg (Jan 15, 8:00 am)
Low68 °F (Jan 14, 6:00 am)28% (Jan 10, 3:00 pm)29.41 "Hg (Jan 11, 5:00 pm)
Average82 °F68%29.59 "Hg
* Reported Jan 6 8:00 pm — Jan 21 8:00 pm, Newman, Weather by CustomWeather, © 2017

Note: Actual official high and low records may vary slightly from our data, if they occured in-between our weather recording intervals... More about our weather records

Advertising

Newman Weather History for the Previous 24 Hours

Scroll right to see more
 ConditionsComfort  
Time TempWeatherWind HumidityBarometerVisibility
8:00 pm
Sat, Jan 21
87 °FWarm.3 mph53%29.62 "HgN/A
6:00 pm92 °FPassing clouds.7 mph42%29.58 "HgN/A
5:00 pm94 °FExtremely hot.5 mph40%29.57 "HgN/A
3:00 pm94 °FScattered clouds.5 mph36%29.57 "HgN/A
2:00 pm92 °FHot.5 mph38%29.59 "HgN/A
12:00 pm89 °FHot.6 mph46%29.63 "HgN/A
11:00 am88 °FWarm.6 mph54%29.65 "HgN/A
9:00 am82 °FWarm.3 mph69%29.66 "HgN/A
8:00 am80 °FWarm.6 mph76%29.65 "HgN/A
6:00 am76 °FMild.No wind92%29.63 "HgN/A
5:00 am76 °FMild.No wind91%29.60 "HgN/A
3:00 am76 °FOvercast.No wind88%29.59 "HgN/A
2:00 am76 °FMild.5 mph86%29.61 "HgN/A
12:00 am77 °FPassing clouds.5 mph85%29.63 "HgN/A
11:00 pm
Fri, Jan 20
77 °FMild.6 mph85%29.64 "HgN/A
9:00 pm77 °FOvercast.5 mph83%29.62 "HgN/A
Weather by CustomWeather, © 2017

See weather overviewHow to use our weather pages